WetterOnline ( http://www.wetteronline.de )

Wetter aktuell Schutz

Aktuelles Wetter: Nürburg-Barweiler (488m)

6-stündlich | Neueste Meldungen
Ortszeit Temperatur Wetter
Do, 16.08. 2:00 15.0° C wolkig
Mi, 15.08. 20:00 20.6° C bedeckt
Mi, 15.08. 14:00 20.5° C bedeckt
Mi, 15.08. 8:00 13.7° C bedeckt
Mi, 15.08. 2:00 14.6° C bewölkt
Di, 14.08. 20:00 17.2° C bewölkt
Di, 14.08. 14:00 18.0° C bedeckt
Di, 14.08. 8:00 14.4° C bedeckt
Ortszeit Temperatur Wetter
Do, 16.08. 5:30 11.8° C wolkenlos
Do, 16.08. 5:20 11.8° C wolkenlos
Do, 16.08. 5:10 11.7° C wolkenlos
Do, 16.08. 5:00 11.7° C wolkenlos
Do, 16.08. 4:50 11.7° C wolkenlos
Do, 16.08. 4:40 12.1° C fast wolkenlos
Do, 16.08. 4:30 12.5° C leicht bewölkt
Do, 16.08. 4:00 12.8° C fast wolkenlos
Do, 16.08. 3:30 13.7° C fast wolkenlos
Do, 16.08. 3:00 14.1° C wolkig
Do, 16.08. 2:30 13.8° C wolkig
Ortszeit Relative Feuchte Sichtweite
Do, 16.08. 2:00 80% 30 km
Mi, 15.08. 20:00 55% 45 km
Mi, 15.08. 14:00 56% 45 km
Mi, 15.08. 8:00 89% 7 km
Mi, 15.08. 2:00 93% 3.9 km
Di, 14.08. 20:00 83% 8 km
Di, 14.08. 14:00 69% 26 km
Di, 14.08. 8:00 91% 8 km
Ortszeit Relative Feuchte Sichtweite
Do, 16.08. 5:30 94% 17 km
Do, 16.08. 5:20 94% -
Do, 16.08. 5:10 94% -
Do, 16.08. 5:00 95% 8 km
Do, 16.08. 4:50 95% -
Do, 16.08. 4:40 92% -
Do, 16.08. 4:30 92% 20 km
Do, 16.08. 4:00 89% 18 km
Do, 16.08. 3:30 87% 26 km
Do, 16.08. 3:00 85% 25 km
Do, 16.08. 2:30 84% 29 km
Ortszeit Niederschlagsmenge Niederschlagsart
Do, 16.08. 2:00 0.0 l/m2 in 6 Std. -
Mi, 15.08. 20:00 0.0 l/m2 in 12 Std. -
Mi, 15.08. 14:00 0.0 l/m2 in 6 Std. -
Mi, 15.08. 8:00 0.0 l/m2 in 12 Std. -
Mi, 15.08. 2:00 0.0 l/m2 in 6 Std. -
Di, 14.08. 20:00 0.2 l/m2 in 12 Std. Regen
Di, 14.08. 14:00 0.1 l/m2 in 6 Std. Regen
Di, 14.08. 8:00 0.1 l/m2 in 12 Std. Regen
Ortszeit Niederschlagsmenge Niederschlagsart
Do, 16.08. 5:30 0.0 l/m2 in 1 Std. -
Do, 16.08. 5:20 keine Meldung -
Do, 16.08. 5:10 keine Meldung -
Do, 16.08. 5:00 0.0 l/m2 in 1 Std. -
Do, 16.08. 4:50 keine Meldung -
Do, 16.08. 4:40 keine Meldung -
Do, 16.08. 4:30 0.0 l/m2 in 1 Std. -
Do, 16.08. 4:00 0.0 l/m2 in 1 Std. -
Do, 16.08. 3:30 0.0 l/m2 in 1 Std. -
Do, 16.08. 3:00 0.0 l/m2 in 1 Std. -
Do, 16.08. 2:30 0.0 l/m2 in 1 Std. -
Ortszeit Stärke Spitze Richtung
km/h Bft. km/h Grad Sektor
Do, 16.08. 2:00 4 1 11 190° S
Mi, 15.08. 20:00 6 1 17 260° W
Mi, 15.08. 14:00 4 1 18 230° SW
Mi, 15.08. 8:00 4 1 11 200° S
Mi, 15.08. 2:00 4 1 14 220° SW
Di, 14.08. 20:00 4 1 32 250° W
Di, 14.08. 14:00 14 3 32 270° W
Di, 14.08. 8:00 11 2 22 240° SW
Ortszeit Stärke Spitze Richtung
km/h Bft. km/h Grad Sektor
Do, 16.08. 5:30 6 1 6 240° SW
Do, 16.08. 5:20 6 1 - 240° SW
Do, 16.08. 5:10 4 1 - 250° W
Do, 16.08. 5:00 4 1 4 290° W
Do, 16.08. 4:50 4 1 - 290° W
Do, 16.08. 4:40 2 1 - 310° NW
Do, 16.08. 4:30 0 0 4 - -
Do, 16.08. 4:00 2 1 4 300° NW
Do, 16.08. 3:30 0 0 4 - -
Do, 16.08. 3:00 2 1 7 110° O
Do, 16.08. 2:30 4 1 7 200° S
Ortszeit Untergrenze Bedeckung Gattung
total tief tief mittel hoch
Do, 16.08. 2:00 2400 m 5/8 4/8 - - -
Mi, 15.08. 20:00 1290 m 8/8 8/8 - - -
Mi, 15.08. 14:00 1410 m 8/8 8/8 - - -
Mi, 15.08. 8:00 870 m 8/8 8/8 - - -
Mi, 15.08. 2:00 600 m 7/8 7/8 - - -
Di, 14.08. 20:00 510 m 7/8 7/8 - - -
Di, 14.08. 14:00 660 m 8/8 8/8 - - -
Di, 14.08. 8:00 240 m 8/8 8/8 - - -
Ortszeit Bedeckungsgrad in Achtel und Wolkenuntergrenze
Do, 16.08. 5:30 keine Wolken
Do, 16.08. 5:20 keine Wolken
Do, 16.08. 5:10 keine Wolken
Do, 16.08. 5:00 keine Wolken
Do, 16.08. 4:50 keine Wolken
Do, 16.08. 4:40 1(2700m)
Do, 16.08. 4:30 1(2700m) 1(10500m)
Do, 16.08. 4:00 1(2100m)
Do, 16.08. 3:30 1(2400m)
Do, 16.08. 3:00 3(2400m)
Do, 16.08. 2:30 2(2400m) 7(10500m)
Ortszeit Luftdruck NN (hPa) Tendenz (hPa in 3 Std.)
Do, 16.08. 2:00 1020 - 0,3
Mi, 15.08. 20:00 1019 - 0,5
Mi, 15.08. 14:00 1020 - 0,2
Mi, 15.08. 8:00 1020 + 0,8
Mi, 15.08. 2:00 1020 + 0,7
Di, 14.08. 20:00 1017 + 1,2
Di, 14.08. 14:00 1016 + 1,0
Di, 14.08. 8:00 1013 + 1,4
Ortszeit Luftdruck NN (hPa) Tendenz (hPa in 3 Std.)
Do, 16.08. 5:30 1019 - 0,9
Do, 16.08. 5:20 1019 keine Meldung
Do, 16.08. 5:10 1019 keine Meldung
Do, 16.08. 5:00 1020 - 0,7
Do, 16.08. 4:50 1020 keine Meldung
Do, 16.08. 4:40 1019 keine Meldung
Do, 16.08. 4:30 1019 - 0,8
Do, 16.08. 4:00 1020 - 0,7
Do, 16.08. 3:30 1020 - 0,5
Do, 16.08. 3:00 1020 - 0,4
Do, 16.08. 2:30 1020 - 0,2
Ortszeit Schneehöhe (cm)
Do, 16.08. 2:00 -
Mi, 15.08. 20:00 -
Mi, 15.08. 14:00 -
Mi, 15.08. 8:00 -
Mi, 15.08. 2:00 -
Di, 14.08. 20:00 -
Di, 14.08. 14:00 -
Di, 14.08. 8:00 -
Ortszeit Schneehöhe (cm)
Do, 16.08. 5:30 -
Do, 16.08. 5:20 -
Do, 16.08. 5:10 -
Do, 16.08. 5:00 -
Do, 16.08. 4:50 -
Do, 16.08. 4:40 -
Do, 16.08. 4:30 -
Do, 16.08. 4:00 -
Do, 16.08. 3:30 -
Do, 16.08. 3:00 -
Do, 16.08. 2:30 -
Link zu dieser Seite / Seite empfehlen

Das Wetter in ...